Regional Weather Roundup
Issued by NWS

Home | Current Version | Previous Version | Text Only | Print | Product List | Glossary Off
Versions: 1 2 3 4 5 6 7 8 9 10 11 12 13 14 15 16 17 18 19 20 21 22 23 24 25 26 27 28 29 30 31 32 33 34 35 36 37 38 39 40 41 42 43 44 45 46 47 48 49 50

000
ASUS44 KMEG 270610
RWRTN
TENNESSEE HOURLY STATE WEATHER ROUNDUP
NATIONAL WEATHER SERVICE MEMPHIS TN
100 AM CDT THU APR 27 2017

TNZ002-004-019-021-049-052-054-088>092-270700-
WEST TENNESSEE

CITY           SKY/WX    TMP DP  RH WIND       PRES   REMARKS
MEMPHIS INTL   DRIZZLE   62  61  96 W18G29    29.61R FOG
NWS MEMPHIS      N/A     62 N/A N/A MISG        N/A
JACKSON        CLOUDY    62  61  96 S7        29.59R
DYERSBURG      CLOUDY    61  60  97 S8        29.58R
SOMERVILLE     CLOUDY    63  61  94 S5        29.59F
UNION CITY     CLOUDY    61  59  94 SW7G14    29.56R
BOLIVAR        CLOUDY    61  61 100 SE5       29.60F
HUNTINGDON     CLOUDY    61  59  94 SE9       29.57R
LEXINGTON      CLOUDY    61  61 100 VRB7      29.58F
SAVANNAH       MOCLDY    63  61  94 SE8G15    29.58F
$$

TNZ008-025-027-028-033-062-065-066-270700-
NORTH MIDDLE TENNESSEE

CITY           SKY/WX    TMP DP  RH WIND       PRES   REMARKS
NASHVILLE      CLOUDY    74  58  57 SW13G21   29.65R
PORTLAND       CLOUDY    72  59  64 S16G23    29.63R
CLARKSVILLE    RAIN      60  58  92 S3        29.65S FOG
SMYRNA         CLOUDY    73  59  61 S10       29.65F
COOKEVILLE     CLEAR     72  57  60 S14G22    29.68R
GALLATIN       CLOUDY    73  59  60 S8G17     29.67R
CROSSVILLE     CLOUDY    67  55  65 S14G29    29.75R
$$

TNZ061-075-076-078-094-096-097-270700-
SOUTH MIDDLE TENNESSEE

CITY           SKY/WX    TMP DP  RH WIND       PRES   REMARKS
FAYETTEVILLE   CLOUDY    70  57  64 S16G28    29.64F
TULLAHOMA      CLEAR     70  55  60 SE16      29.69F
WINCHESTER     PTCLDY    70  57  64 S8        29.72R
COLUMBIA       CLOUDY   N/A N/A N/A CALM      29.62F
$$

TNZ017-018-042-046-047-270700-
NORTHEAST TENNESSEE

CITY           SKY/WX    TMP DP  RH WIND       PRES   REMARKS
TRI CITIES     CLEAR     59  54  83 CALM      29.78R
ELIZABETHTON     N/A     57  55  94 CALM      29.78S
$$

TNZ012-013-036-069-073-074-270700-
CENTRAL EAST TENNESSEE

CITY           SKY/WX    TMP DP  RH WIND       PRES   REMARKS
KNOXVILLE      PTCLDY    66  55  67 SW9       29.75R
OAK RIDGE      CLOUDY    72  55  55 VRB5      29.77R
DOWNTOWN KNOXV CLEAR     61  59  94 SW3       29.75S
MORRISTOWN     CLEAR     61  59  94 CALM      29.75S FOG
JACKSBORO      CLEAR     73  55  53 S24G36    29.76R
$$

TNZ083-085-099-270700-
SOUTHEAST TENNESSEE

CITY           SKY/WX    TMP DP  RH WIND       PRES   REMARKS
CHATTANOOGA    CLOUDY    70  57  63 S3        29.75S
$$

SKY/WX REPORTED AS FAIR MEANS FEW OR NO CLOUDS BELOW
12 THOUSAND FEET.





USA.gov is the U.S. government's official web portal to all federal, state and local government web resources and services.